Change the Weather History Date:

Sunday, August 4, 2013

  Actual Average Record
Temperature  
Mean Temperature 93 °F -  
Max Temperature 104 °F 101 °F 109 °F (2006)
Min Temperature 82 °F 80 °F 78 °F (1997)
Cooling Degree Days 28    
Growing Degree Days 43 (Base 50)    
Moisture  
Dew Point 55 °F    
Average Humidity 27    
Maximum Humidity 48    
Minimum Humidity 11    
Precipitation  
Precipitation 0.00 in -13.12 in - ()
Sea Level Pressure  
Sea Level Pressure 29.72 in    
Wind  
Wind Speed 8 mph ()    
Max Wind Speed 14 mph    
Max Gust Speed -    
Averages and records for this station are not official NWS values.
T = Trace of Precipitation, MM = Missing Value Source: Averaged Metar Reports

Daily Weather History Graph

Daily Weather History Graph

Search for Another Location

Airport or City:

Trip Planner

Search our weather history database for the weather conditions in past years. The results will help you decide how hot, cold, wet, or windy it might be!

Date:

Astronomy

Aug. 04, 2013 Rise Set
Actual Time 6:01 AM IDT 7:30 PM IDT
Civil Twilight 5:36 AM IDT 7:55 PM IDT
Nautical Twilight 5:05 AM IDT 8:26 PM IDT
Astronomical Twilight 4:33 AM IDT 8:58 PM IDT
Moon 3:46 AM IDT (8/4) 5:38 PM IDT (8/4)
Length of Visible Light 14h 19m
Length of Day
13h 28m
Waning Crescent, 6% of the Moon is Illuminated
Aug 4
Waning Crescent
Aug 7
New
Aug 14
First Quarter
Aug 21
Full
Aug 28
Last Quarter

Hourly Weather History & Observations

Time (IDT) Temp. Heat Index Dew Point Humidity Pressure Visibility Wind Dir Wind Speed Gust Speed Precip Events Conditions
3:00 AM 88 °F - 50 °F 17% 29.75 in - North 2.3 mph - -  
5:50 AM 84.2 °F 83.5 °F 57.2 °F 40% 29.80 in - NNE 8.1 mph - N/A   Clear
6:50 AM 84.2 °F 83.8 °F 59.0 °F 42% 29.80 in - NE 10.4 mph - N/A   Clear
7:50 AM 84.2 °F 85.0 °F 62.6 °F 48% 29.80 in - NNE 12.7 mph - N/A   Clear
8:50 AM 86.0 °F 86.6 °F 62.6 °F 45% 29.80 in - NNE 12.7 mph - N/A   Clear
9:00 AM 89 °F - 62 °F 31% 29.78 in - North 5.8 mph - -  
9:50 AM 89.6 °F 90.1 °F 62.6 °F 40% 29.80 in - NNE 9.2 mph - N/A   Clear
10:50 AM 91.4 °F 91.4 °F 60.8 °F 36% 29.77 in - NE 9.2 mph - N/A   Clear
11:50 AM 93.2 °F 91.3 °F 55.4 °F 28% 29.74 in - ENE 10.4 mph - N/A   Clear
12:50 PM 96.8 °F 94.4 °F 53.6 °F 23% 29.74 in - ENE 8.1 mph - N/A   Clear
1:50 PM 98.6 °F 97.2 °F 55.4 °F 24% 29.71 in - ENE 11.5 mph - N/A   Clear
2:50 PM 102.2 °F 100.4 °F 53.6 °F 20% 29.68 in - NE 13.8 mph - N/A   Clear
3:00 PM 102 °F - 52 °F 11% 29.68 in - ENE 8.1 mph - -  
3:50 PM 102.2 °F - 51.8 °F 18% 29.68 in - NE 13.8 mph - N/A   Clear
4:50 PM 104.0 °F - 48.2 °F 15% 29.65 in - ENE 13.8 mph - N/A   Clear
5:50 PM 104.0 °F - 46.4 °F 14% 29.65 in - NNE 10.4 mph - N/A   Clear
6:50 PM 100.4 °F - 48.2 °F 17% 29.65 in - North 12.7 mph - N/A   Clear
7:50 PM 98.6 °F - 48.2 °F 18% 29.68 in - NNW 9.2 mph - N/A   Clear
8:50 PM 96.8 °F - 51.8 °F 22% 29.68 in - NNW 11.5 mph - N/A   Clear
9:00 PM 95 °F - 52 °F 15% 29.67 in - NW 6.9 mph - -  
9:50 PM 95.0 °F 92.7 °F 53.6 °F 25% 29.71 in - NNW 11.5 mph - N/A   Clear
10:50 PM 93.2 °F 94.1 °F 62.6 °F 36% 29.71 in - NNE 10.4 mph - N/A   Clear
11:50 PM 91.4 °F 93.2 °F 64.4 °F 41% 29.74 in - North 11.5 mph - N/A   Clear